Regional Weather Roundup
Issued by NWS

Home | Current Version | Previous Version | Graphics & Text | Print | Product List | Glossary On
Versions: 1 2 3 4 5 6 7 8 9 10 11 12 13 14 15 16 17 18 19 20 21 22 23 24 25 26 27 28 29 30 31 32 33 34 35 36 37 38 39 40 41 42 43 44 45 46 47 48 49 50
000
ASUS43 KFSD 021002
RWRSD

WEATHER ROUNDUP FOR SOUTH DAKOTA
NATIONAL WEATHER SERVICE SIOUX FALLS SD
500 AM CDT WED SEP 02 2015

NOTE: "FAIR" INDICATES FEW OR NO CLOUDS BELOW 12,000 FEET WITH NO
SIGNIFICANT WEATHER AND/OR OBSTRUCTIONS TO VISIBILITY.


SDZ001>005-009-010-012>017-021100-
NORTHWEST AND NORTH CENTRAL SOUTH DAKOTA

CITY           SKY/WX    TMP DP  RH WIND       PRES   REMARKS
BUFFALO          N/A     64  54  69 SE7       29.77S
FAITH            N/A     58  52  80 N7        29.81F
MOBRIDGE       CLEAR     65  65 100 E8        29.77S FOG
$$

SDZ012>016-024>037-041>051-057-063-072>074-021100-
SOUTHWEST AND SOUTH CENTRAL SOUTH DAKOTA

CITY           SKY/WX    TMP DP  RH WIND       PRES   REMARKS
RAPID CTY ARPT CLEAR     60  49  66 NW10      29.85R
PIERRE         FOG       60  60 100 CALM      29.77S VSB 1/4
CUSTER         MOCLDY    61  38  42 W7        30.03R
ELLSWORTH AFB  CLEAR     61  50  65 W7        29.84R
PHILIP         PTCLDY    56  54  93 W3        29.79F
PINE RIDGE     CLEAR     62  46  55 NW5       29.88R
WINNER         FAIR      69  61  75 CALM      29.81R
$$

SDZ004>011-016>023-039-040-021100-
NORTHEAST SOUTH DAKOTA

CITY           SKY/WX    TMP DP  RH WIND       PRES   REMARKS
ABERDEEN       CLEAR     66  64  93 E5        29.80S
WATERTOWN      CLEAR     65  62  90 SE6       29.85S
BROOKINGS      CLEAR     64  61  88 SE8       29.87S
$$

SDZ017-020-022-023-036>040-048>070-021100-
SOUTHEAST SOUTH DAKOTA

CITY           SKY/WX    TMP DP  RH WIND       PRES   REMARKS
SIOUX FALLS    CLEAR     67  65  93 SE3       29.85R
HURON          PTCLDY    69  67  93 SE10      29.79S
CHAMBERLAIN    CLEAR     63  63 100 SE7       29.79S
MITCHELL       CLEAR     68  67  96 SE7       29.81S
YANKTON        CLEAR     66  64  94 E3        29.82S
$$

ABBREVIATIONS USED IN REMARKS
   TC - TEMPERATURE IN CELSIUS
  WCI - WIND CHILL INDEX
   HX - HEAT INDEX
  VSB - VISIBILITY




USA.gov is the U.S. government's official web portal to all federal, state and local government web resources and services.